SCP
0 0 0 0 0 0 0 0 0 0 0 0 0 0 0 0 0 0 0 0 0 0 0 0 0 0 0 0 0 0 0 0 0 0 0 0 0 0 0 0 0 0 0 0
0 0 0 0 0 0 0 0 0 0 0 0 0 0 0 0 0 0 0 0 0 0 0 0 0 0 0 0 0 0 0 0 0 0 0 0 0 -0 -0 -0 0 0 0 0
0 0 0 0 0 0 0 0 0 0 0 0 0 0 0 0 0 0 0 0 0 0 0 0 0 0 0 0 0 0 0 0 0 0 0 0 0 -0 -0 -0 0 0 0 0
0 0 0 0 0 0 0 0 0 0 0 0 0 0 0 0 0 0 0 0 0 0 0 0 0 0 0 0 0 0 0 0 0 0 0 0 0 0 0 0 0 0 0 0
0 0 0 0 0 0 0 0 0 0 0 0 0 0 0 0 0 0 0 0 0 0 0 0 0 0 0 0 0 0 0 0 0 0 0 0 0 0 0 0 0 0 0 0
0 0 0 0 0 0 0 0 0 0 0 0 0 0 0 0 0 0 0 0 0 0 0 0 0 0 0 0 0 0 0 0 0 0 0 0 0 0 0 0 0 0 0 0
0 0 0 0 0 0 0 0 0 0 0 0 0 0 0 0 0 0 0 0 0 0 0 0 0 0 0 0 0 0 0 0 0 0 0 0 0 0 0 0 0 0 0 0
0 0 0 0 0 0 0 0 0 0 0 0 0 0 0 0 0 0 0 0 0 0 0 0 0 0 0 0 0 0 0 0 0 0 0 0 0 0 0 0 0 0 0 0
0 0 0 0 0 0 0 0 0 0 0 0 0 0 0 0 0 0 0 0 0 0 0 0 0 0 0 0 0 0 0 0 0 0 0 0 0 0 0 0 0 0 0 0
0 0 0 0 0 0 0 0 0 0 0 0 0 0 0 0 0 0 0 0 0 0 0 0 0 0 0 0 0 0 0 0 0 0 0 0 0 0 0 0 0 0 0 0
0 0 0 0 0 0 0 0 0 0 0 0 0 0 0 0 0 0 0 0 0 0 0 0 0 0 0 0 0 0 0 0 0 0 0 0 0 0 0 0 0 0 0 0
0 0 0 0 0 0 0 0 0 0 0 0 0 0 0 0 0 0 0 0 0 0 0 0 0 0 0 0 0 0 0 0 0 0 0 0 0 0 0 0 0 0 0 0
0 0 0 0 0 0 0 0 0 0 0 0 0 0 0 0 0 0 0 0 0 0 0 0 0 0 0 0 0 0 0 0 0 0 0 0 0 0 0 0 0 0 0 0
0 0 0 0 0 0 0 0 0 0 0 0 0 0 0 0 0 0 0 0 0 0 0 0 0 0 0 0 0 0 0 0 0 0 0 0 0 0 0 0 0 0 0 0
0 0 0 0 0 0 0 0 0 0 0 0 0 0 0 0 0 0 0 0 0 0 0 0 0 0 0 0 0 0 0 0 0 0 0 0 0 0 0 0 0 0 0 0
0 0 0 0 0 0 0 0 0 0 0 0 0 0 0 0 0 0 0 0 0 0 0 0 0 0 0 0 0 0 0 0 0 0 0 0 0 0 0 0 0 0 0 0
0 0 0 0 0 0 0 0 0 0 0 0 0 0 0 0 0 0 0 0 0 0 0 0 0 0 0 0 0 0 0 0 0 0 0 0 0 0 0 0 0 0 0 0
0 0 0 0 0 0 0 0 0 0 0 0 0 0 0 0 0 0 0 0 0 0 0 0 0 0 0 0 0 0 0 0 0 0 0 0 0 0 0 0 0 0 0 0
0 0 0 0 0 0 0 0 0 0 0 0 0 0 0 0 0 0 0 0 0 0 0 0 0 0 0 0 0 0 0 0 0 0 0 0 0 0 0 0 0 0 0 0
0 0 0 0 0 0 0 0 0 0 0 0 0 0 0 0 0 0 0 0 0 0 0 0 0 0 0 0 0 0 0 0 0 0 0 0 0 0 0 0 0 0 0 0
0 0 0 0 0 0 0 0 0 0 0 0 0 0 0 0 0 0 0 0 0 0 0 0 0 0 0 0 0 0 0 0 0 0 0 0 0 0 0 0 0 0 0 0
0 0 0 0 0 0 0 0 0 0 0 0 0 0 0 0 0 0 0 0 0 0 0 0 0 0 0 0 0 0 0 0 0 0 0 0 0 0 0 0 0 0 0 0
0 0 0 0 0 0 0 0 0 0 0 0 0 0 0 0 0 0 0 0 0 0 0 0 0 0 0 0 0 0 0 0 0 0 0 0 0 0 0 0 0 0 0 0
0 0 0 0 0 0 0 0 0 0 0 0 0 0 0 0 0 0 0 0 0 0 0 0 0 0 0 0 0 0 0 0 0 0 0 0 0 0 0 0 0 0 0 0
0 0 0 0 0 0 0 0 0 0 0 0 0 0 0 0 0 0 0 0 0 0 0 0 0 0 0 0 0 0 0 0 0 0 0 0 0 0 0 0 0 0 0 0
0 0 0 0 0 0 0 0 0 0 0 0 0 0 0 0 0 0 0 0 0 0 0 0 0 0 0 0 0 0 0 0 0 0 0 0 0 0 0 0 0 0 0 0
0 0 0 0 0 0 0 0 0 0 0 0 0 0 0 0 0 0 0 0 0 0 0 0 0 0 0 0 0 0 0 0 0 0 0 0 0 0 0 0 0 0 0 0
Wind_Speed
2 1 2 1 1 2 2 4 5 3 3 6 6 6 7 7 8 8 8 7 7 7 6 6 6 7 7 7 8 7 8 8 8 8 8 8 8 8 8 8 9 7 7 7
2 1 1 0 1 2 2 3 3 1 4 6 5 4 5 6 6 7 8 7 7 7 6 6 6 6 6 6 7 6 7 8 7 7 8 8 8 8 8 8 8 8 8 7
1 1 3 4 6 6 4 4 5 5 6 3 3 4 5 5 6 7 7 7 6 5 5 4 4 4 4 5 5 6 7 7 7 7 7 7 7 7 8 7 7 8 8 7
2 1 4 7 3 6 5 5 7 5 5 4 5 4 5 4 4 6 6 6 5 5 4 3 3 3 3 4 5 6 6 7 7 7 7 6 7 7 7 5 6 6 7 7
3 2 7 5 4 7 6 5 7 7 6 4 2 3 4 3 3 4 4 4 4 3 3 3 2 2 3 4 5 6 6 6 6 6 6 7 7 6 5 5 6 6 5 7
4 2 5 6 4 6 5 5 7 9 7 4 3 1 4 4 4 4 5 4 4 3 2 2 2 2 3 4 4 4 4 4 5 5 6 6 6 5 5 5 5 5 6 6
4 4 9 6 6 8 4 9 5 9 8 7 6 6 5 4 4 3 4 4 4 3 3 3 2 1 2 3 3 2 3 4 5 5 5 5 5 5 5 5 6 6 6 6
5 4 10 5 10 10 11 3 6 8 8 8 7 4 4 3 2 4 4 5 4 4 4 3 2 1 2 2 1 2 4 5 5 6 5 5 5 6 6 6 6 6 6 7
10 10 6 9 9 7 6 6 7 8 7 7 5 4 2 1 1 3 3 4 3 3 3 3 3 1 1 1 2 4 4 5 4 5 5 5 5 6 5 6 5 5 6 6
5 8 6 8 5 4 6 7 7 8 7 8 6 4 3 1 1 2 3 3 3 3 4 4 4 2 1 0 3 4 4 3 3 4 4 5 4 4 4 5 5 5 6 6
6 7 3 6 9 8 6 5 6 6 7 8 7 5 4 3 2 1 2 2 2 2 2 3 3 3 2 2 4 4 3 3 2 3 2 3 3 3 3 3 4 4 3 4
9 9 8 8 10 10 9 9 9 9 7 5 6 6 5 3 2 1 1 2 2 2 2 3 3 3 2 1 4 4 3 2 2 1 1 1 1 2 3 3 6 8 8 5
6 5 6 3 6 10 11 10 10 10 9 7 6 6 5 4 2 2 1 1 2 2 2 2 2 3 3 0 3 3 3 3 2 2 1 1 0 1 3 4 5 7 10 10
4 5 4 5 7 10 10 10 9 8 7 7 6 5 4 4 3 3 2 2 2 2 1 1 1 2 3 1 2 3 2 3 3 2 2 2 1 1 1 1 2 3 5 8
9 8 6 5 6 8 7 8 8 7 7 6 5 5 5 5 5 4 3 2 1 1 1 1 1 3 3 1 2 3 3 2 2 2 2 2 2 1 1 0 1 1 2 4
7 5 4 5 8 10 9 9 10 10 8 7 7 7 7 6 5 4 3 3 2 3 3 2 2 3 3 1 1 2 2 4 3 2 2 2 2 2 1 1 0 1 1 1
9 9 8 7 9 10 11 12 12 11 9 9 9 8 6 5 4 4 4 4 4 4 3 3 3 3 2 1 2 2 2 2 3 2 2 2 2 3 2 2 2 1 1 1
11 12 10 10 11 12 12 11 10 10 10 10 8 7 7 7 7 7 5 3 2 3 4 4 3 2 2 1 1 1 2 2 2 2 2 3 3 3 3 3 3 3 2 1
10 9 9 9 10 11 11 11 10 10 9 8 8 9 9 8 8 6 4 4 4 5 5 5 5 3 2 2 1 1 1 2 2 2 3 3 3 3 3 3 3 4 3 3
9 8 8 8 8 8 9 9 9 8 8 8 8 7 7 7 7 6 6 6 6 6 4 4 3 3 3 3 2 1 2 2 3 3 3 3 3 4 4 4 4 4 4 4
7 8 8 8 8 8 8 9 9 9 8 9 9 9 9 8 7 6 5 5 7 6 6 6 4 4 3 3 2 2 2 2 3 3 3 3 4 4 4 4 4 4 5 4
3 5 6 7 7 7 6 7 8 8 8 8 9 8 7 7 7 6 6 7 5 6 5 4 4 6 6 5 2 2 3 3 3 3 3 4 4 4 5 5 5 5 5 5
2 2 3 4 5 5 4 5 7 7 8 9 9 9 9 8 7 6 6 7 5 7 6 5 8 10 9 5 3 3 3 4 4 4 4 4 4 5 5 5 5 5 5 5
5 4 3 2 3 4 2 3 4 5 6 6 7 8 7 6 5 6 6 4 8 9 6 8 12 11 9 4 4 4 4 4 4 4 4 4 4 4 5 5 5 5 5 6
6 6 6 6 5 2 1 0 1 2 3 3 4 5 5 5 6 6 5 6 9 8 5 8 12 12 7 4 5 5 5 5 5 4 4 4 4 4 5 5 5 5 5 5
6 5 5 4 3 2 2 2 1 1 0 1 2 2 3 3 4 3 3 5 7 8 6 5 5 6 5 5 5 6 5 5 5 5 5 4 5 5 5 5 6 5 5 5
5 4 4 4 4 4 3 3 2 2 1 1 2 2 2 2 3 4 4 4 4 5 5 5 5 5 5 5 5 5 5 5 5 5 5 4 4 4 5 6 5 5 5 5
Wind_Direction
89 109 116 106 88 110 122 159 166 215 248 269 281 290 299 305 315 325 331 337 340 340 341 351 358 0 3 7 8 13 23 25 21 21 26 33 35 36 38 42 43 39 42 36
48 65 92 116 184 137 141 163 182 228 267 257 269 284 298 310 319 323 325 331 336 339 343 352 356 358 2 5 4 14 24 21 17 21 27 29 31 34 38 38 37 38 36 30
223 340 5 279 217 191 197 200 179 205 238 264 281 290 295 305 311 310 314 322 329 332 330 331 342 354 360 358 7 23 25 21 18 22 28 24 29 34 32 30 32 35 31 26
117 73 269 251 209 173 183 216 205 221 244 241 245 269 281 276 289 305 315 322 324 324 325 325 340 4 10 17 23 28 27 24 19 22 26 23 29 29 24 24 29 29 28 22
121 206 280 280 190 169 174 244 209 208 235 243 259 350 317 292 293 289 302 306 302 304 304 317 345 10 28 25 25 33 30 25 21 25 29 29 29 23 16 23 28 27 23 20
130 194 251 252 194 152 111 269 218 187 205 199 125 59 278 294 317 319 327 329 329 330 338 347 347 28 39 24 28 31 30 30 30 34 36 32 27 22 18 23 23 23 23 17
162 228 262 241 145 122 153 243 201 177 186 176 182 205 239 298 317 333 338 343 352 358 357 334 332 45 37 24 25 37 56 49 39 34 40 36 31 26 22 23 24 21 17 10
160 207 258 183 147 181 211 206 165 173 178 181 205 231 255 283 325 350 356 354 358 2 354 346 2 48 26 8 50 90 75 61 48 37 37 37 38 32 25 23 26 19 14 11
188 212 228 185 193 202 168 169 177 175 180 178 189 214 223 239 338 344 352 352 353 3 1 360 6 34 8 318 128 108 87 72 59 51 42 36 41 36 29 25 26 19 16 13
244 258 232 218 230 198 182 181 178 172 168 168 178 192 192 196 293 326 338 347 353 12 16 358 349 2 342 178 136 120 107 92 72 62 49 38 38 37 36 26 22 18 15 9
250 265 258 230 209 197 185 173 158 163 171 174 175 182 183 193 235 281 317 332 355 11 2 346 348 359 13 117 132 125 122 116 96 79 67 45 38 32 28 17 15 15 359 355
218 214 191 222 199 177 168 176 172 167 173 179 177 181 179 191 213 237 294 327 353 0 357 347 355 1 9 115 144 140 140 148 148 139 111 49 17 0 4 17 27 33 31 29
202 191 184 224 176 173 177 179 174 173 174 176 183 181 175 187 202 211 255 311 323 318 318 335 352 353 355 67 154 157 167 175 177 182 188 210 310 354 346 348 14 30 28 32
185 138 168 192 184 183 180 177 172 175 177 173 171 172 171 179 191 205 231 256 278 290 296 323 344 333 332 326 167 169 174 185 183 196 199 205 216 239 299 344 350 345 2 25
198 191 195 187 167 169 168 157 162 177 178 178 174 173 177 184 202 218 226 233 249 274 278 274 306 311 324 318 186 184 180 190 191 195 194 195 194 189 193 242 349 336 348 3
184 184 171 166 174 172 165 170 177 187 185 184 185 192 194 194 202 216 222 208 208 242 254 247 268 290 309 293 209 197 206 216 195 187 190 185 183 182 184 183 232 318 336 332
158 182 190 193 191 186 186 185 186 187 184 187 195 194 187 184 199 222 230 222 221 236 236 226 250 288 305 281 211 208 214 230 210 189 199 201 198 201 196 190 204 230 259 273
196 192 183 182 185 189 193 189 186 183 186 194 189 178 180 188 205 220 222 212 219 245 244 231 237 267 295 294 209 204 207 218 212 213 213 211 210 204 196 198 206 214 231 266
202 196 192 191 186 184 187 188 189 189 187 180 177 187 195 202 208 211 195 187 207 235 249 232 225 225 247 265 206 187 212 228 234 232 222 223 218 208 203 205 209 210 208 209
199 196 191 192 184 180 187 186 182 184 185 178 181 189 201 211 206 196 187 204 218 217 221 212 209 218 231 243 219 209 234 241 243 244 230 219 217 218 213 211 212 211 209 209
191 187 185 186 189 191 188 181 178 186 186 178 182 193 204 211 196 180 180 223 243 220 214 216 207 213 217 218 215 220 244 250 248 243 237 230 224 221 218 216 215 214 212 211
173 178 184 183 184 193 192 181 183 186 182 185 193 195 197 202 193 192 207 218 230 198 194 205 207 214 213 208 203 225 245 252 251 245 240 233 226 224 223 219 219 218 213 210
81 125 155 174 184 188 174 179 188 187 188 192 194 194 197 200 186 183 223 228 211 208 200 210 215 219 219 208 204 222 239 249 250 245 241 236 230 227 226 225 221 217 214 210
48 56 67 90 104 114 152 207 200 198 201 203 204 201 194 194 207 216 218 214 193 200 205 219 221 223 217 197 204 218 231 239 244 245 245 243 237 232 229 226 224 220 217 214
41 44 49 59 66 57 348 353 144 183 199 215 225 216 204 194 204 215 203 210 212 209 214 226 227 223 209 198 207 217 226 231 235 236 237 239 239 235 232 227 224 222 216 214
37 42 45 51 50 31 24 47 62 49 142 246 261 238 221 217 221 220 207 212 214 210 210 216 216 214 201 204 212 219 225 237 248 244 237 239 239 238 235 232 230 223 220 217
28 34 36 35 28 24 28 38 39 15 355 289 283 285 252 227 216 217 217 217 214 215 216 215 207 205 206 209 216 221 223 226 230 233 235 235 236 236 237 236 231 226 220 218